Wind_Speed
5 4 6 6 6 4 3 5 3 2 4 3 7 9 4 15 13 18 23 26 32 34 33 32 34 33 30 32 32 30 26 26 23 19 17 17 15 11 10 8 5 6 6 5
5 4 8 7 5 4 3 1 1 3 2 4 3 3 4 8 9 20 26 25 28 29 36 33 36 39 36 36 33 32 28 27 25 20 18 17 14 12 10 8 6 6 6 6
7 6 8 6 5 5 2 4 2 3 4 4 2 4 2 1 1 10 19 25 24 31 33 37 39 40 41 41 38 34 31 29 27 23 22 20 16 14 14 12 10 7 6 4
4 3 7 4 4 5 1 7 5 3 3 2 2 3 2 3 4 5 11 25 28 31 27 37 42 41 45 44 39 35 33 32 29 27 26 23 22 19 16 14 10 8 8 7
6 7 5 3 5 7 7 4 6 4 3 3 3 4 4 2 7 13 19 24 32 33 29 32 44 43 41 44 42 39 36 35 31 30 30 27 25 20 17 15 14 12 9 9
2 1 3 6 4 8 4 5 7 5 3 2 5 5 4 5 7 11 16 27 31 36 36 29 36 43 44 43 44 42 41 38 34 31 30 32 28 24 22 19 16 14 11 10
5 4 5 3 3 3 5 6 2 2 2 5 3 4 5 6 9 11 15 25 34 39 38 35 34 41 45 47 46 44 43 43 36 34 31 30 32 29 25 22 19 15 15 12
4 4 7 8 3 4 3 7 5 5 5 3 4 4 1 5 16 17 10 13 24 34 39 34 39 39 43 46 46 48 47 45 41 36 33 29 30 32 29 26 22 20 17 13
4 2 5 5 7 2 3 4 3 7 3 4 2 3 3 9 16 22 24 4 9 20 33 42 36 41 41 46 47 48 48 48 46 38 35 32 30 30 30 29 25 24 20 17
1 4 3 6 5 9 7 1 3 3 4 3 3 3 4 13 16 15 19 20 13 8 22 29 37 43 45 47 47 48 46 46 49 44 38 35 32 31 30 30 29 27 24 22
2 4 4 4 7 4 5 5 6 5 3 5 4 2 5 6 7 11 20 26 25 20 14 28 33 39 48 49 48 49 50 48 50 49 44 39 35 32 31 30 31 29 27 24
4 4 5 3 5 4 5 3 3 4 3 1 3 3 4 8 14 16 22 27 25 23 19 14 32 37 40 47 49 50 49 49 49 50 49 42 38 34 33 32 32 31 31 28
1 3 4 4 6 5 6 5 4 4 3 1 4 4 4 13 18 24 23 30 27 26 22 16 5 23 36 41 45 48 50 49 47 49 50 49 44 40 36 31 32 33 33 31
6 3 3 6 4 3 4 2 3 5 3 3 4 2 7 13 12 22 29 30 25 32 25 19 9 8 21 31 38 41 44 46 46 45 46 48 48 45 41 36 31 33 35 36
4 4 2 4 4 3 3 3 2 2 4 4 4 3 4 4 7 15 21 29 32 31 29 27 15 8 3 11 26 31 36 38 40 41 41 42 45 46 44 42 38 34 35 36
5 2 2 3 4 3 3 5 6 5 3 6 6 3 7 6 12 23 24 27 28 30 29 23 26 19 7 4 12 16 26 29 29 32 32 34 38 40 45 44 43 39 37 37
3 4 3 3 2 3 3 2 1 1 3 2 4 2 8 8 15 16 21 22 22 27 29 24 21 23 19 11 7 15 11 15 21 25 29 30 31 37 38 40 41 42 40 37
3 3 2 3 2 3 4 4 4 2 3 3 1 4 6 10 22 14 10 19 21 22 24 25 21 19 19 17 9 6 11 16 14 23 28 30 30 33 34 36 39 40 39 39
3 4 3 3 1 3 3 4 4 4 1 9 6 12 12 19 17 5 4 19 21 22 21 18 20 18 15 17 16 14 5 9 11 11 19 29 32 30 30 33 35 37 38 39
5 6 4 1 2 2 2 3 6 3 4 8 10 14 17 16 3 3 16 30 28 22 20 20 18 19 18 15 15 14 16 11 4 6 9 18 27 29 31 30 32 30 32 36
3 3 4 3 1 4 3 8 6 2 3 8 7 10 15 7 9 28 32 32 32 30 27 21 19 18 21 19 17 13 12 18 16 8 5 6 18 20 23 27 27 28 28 30
3 5 3 2 3 6 3 3 3 3 14 17 18 17 19 25 27 27 35 35 35 35 31 23 24 21 18 20 20 21 15 13 13 17 15 11 12 13 24 23 25 28 30 30
2 5 4 6 5 4 8 6 3 5 8 14 18 23 24 29 33 31 31 39 37 36 36 31 27 26 22 21 21 20 20 19 19 21 23 22 22 15 14 22 28 25 26 28
2 5 2 4 3 12 16 6 5 4 7 11 14 19 23 29 32 36 35 35 39 38 38 35 30 29 28 22 23 22 17 21 22 22 26 29 27 25 21 18 22 32 33 34
5 10 6 5 9 12 10 5 7 7 13 18 20 23 29 29 30 32 33 31 38 41 37 33 32 32 31 25 24 22 20 20 23 23 25 26 25 23 28 23 21 25 33 35
12 7 5 5 10 5 4 1 4 10 14 17 21 25 33 28 28 30 30 31 34 37 34 36 33 32 31 26 26 25 23 23 23 23 26 25 29 30 26 29 29 22 28 29
Wind_Direction
183 109 194 188 190 168 134 115 118 254 235 200 232 247 168 170 189 184 191 190 192 199 204 207 207 204 197 189 186 188 189 189 189 188 190 198 203 205 208 205 218 218 221 209
63 205 206 194 197 168 142 95 182 280 174 185 320 314 124 152 197 198 194 196 196 200 207 214 215 210 206 199 197 195 198 198 197 194 195 203 201 200 198 191 194 188 201 212
147 202 170 179 167 172 153 161 202 185 341 35 109 354 107 59 89 190 208 206 202 199 209 215 217 215 212 208 204 204 203 206 206 200 200 205 203 206 202 201 206 199 206 221
185 156 160 159 181 131 212 203 188 184 79 187 75 276 321 195 214 242 206 205 209 205 208 213 214 216 214 214 211 211 210 211 213 210 210 212 210 207 209 210 211 211 215 211
225 151 150 160 197 166 213 137 173 173 137 65 330 80 265 174 229 230 218 212 211 213 212 209 211 216 219 217 215 216 215 214 216 215 218 218 213 215 217 214 214 213 218 221
158 78 107 200 202 187 108 85 38 44 90 66 230 127 281 191 233 245 220 217 216 213 218 215 215 218 218 222 219 218 217 216 217 217 224 223 219 216 216 218 214 212 220 228
22 359 324 46 96 56 96 83 23 32 49 207 345 91 231 296 281 235 222 216 216 217 219 224 217 217 219 222 221 220 219 217 218 219 222 222 225 222 222 221 219 217 222 224
117 26 356 339 52 163 123 151 152 163 168 208 16 194 176 310 351 21 240 227 210 217 226 230 219 223 220 221 223 223 221 222 219 221 223 226 225 226 225 222 221 221 223 224
123 64 314 54 26 37 157 67 171 105 13 85 241 297 329 360 14 12 27 40 233 232 234 234 232 222 228 226 223 225 226 224 224 224 224 226 227 227 225 223 225 223 224 224
103 89 9 307 15 26 92 108 75 15 119 142 310 63 309 348 348 347 358 357 346 283 244 241 230 223 224 231 232 229 231 231 230 226 228 227 228 228 227 225 225 223 222 225
54 79 313 33 12 287 3 19 37 108 98 148 155 279 17 323 325 338 340 345 345 337 286 239 237 232 226 228 228 232 231 232 232 231 228 229 228 230 227 225 225 224 222 221
349 110 71 60 298 16 70 73 86 115 218 33 113 223 57 352 350 359 351 349 355 358 346 300 234 230 222 225 227 228 231 234 233 232 231 231 231 230 228 227 226 227 223 223
62 23 92 26 331 8 47 345 110 96 84 165 130 225 16 12 10 4 358 360 15 24 20 13 300 232 220 224 228 229 230 232 235 233 233 233 233 232 230 229 230 227 228 227
82 77 136 171 144 131 78 359 19 97 93 175 209 259 346 356 14 4 359 3 2 19 35 37 44 205 218 219 228 230 231 232 233 234 236 236 236 237 236 234 231 232 229 230
78 104 69 73 92 93 125 176 196 183 190 173 165 147 318 4 355 19 9 12 14 13 18 36 35 40 27 225 220 225 228 231 234 235 239 242 242 242 242 240 238 236 234 232
6 118 101 85 53 75 198 234 231 244 267 279 289 99 324 357 12 26 19 15 12 10 16 22 33 33 37 201 197 208 222 230 233 239 242 244 244 243 245 244 242 239 240 236
58 121 91 158 360 34 54 316 248 244 57 316 240 31 20 344 353 354 16 23 8 8 9 17 21 34 28 23 222 209 208 213 230 242 244 243 244 246 243 247 247 246 241 243
116 87 75 146 23 158 207 8 350 196 96 10 2 20 33 342 323 312 15 21 11 9 7 8 4 23 40 37 45 223 216 210 219 229 243 249 248 244 244 245 247 247 246 242
88 119 76 113 111 274 94 11 9 25 36 29 353 354 349 345 335 189 341 1 348 345 352 351 348 351 21 39 33 48 105 208 213 224 228 236 243 247 250 245 246 243 246 246
62 75 106 101 100 197 126 258 314 206 254 20 1 335 335 348 360 265 282 314 321 323 330 336 336 334 333 8 38 29 31 49 83 224 224 225 230 235 250 252 253 248 242 246
26 12 118 142 124 298 159 303 350 154 292 318 322 323 318 301 278 293 301 301 306 306 310 315 316 317 324 326 335 336 346 12 30 19 13 280 251 249 250 253 256 256 252 250
170 135 177 85 179 257 182 35 188 293 316 314 316 309 302 297 295 296 299 296 298 299 299 300 301 300 309 317 324 308 324 330 1 19 8 341 333 285 246 243 247 255 252 254
223 174 181 179 210 149 155 203 229 331 296 299 301 305 301 296 297 301 300 298 293 290 292 296 294 290 289 297 308 312 305 306 303 310 321 331 344 315 299 246 241 244 247 252
254 171 177 50 207 209 216 216 209 2 340 325 312 318 314 295 297 298 299 296 296 297 290 291 290 282 279 286 295 303 307 310 309 305 308 301 311 322 313 307 249 238 241 252
195 155 191 250 257 245 252 220 227 291 317 318 320 318 317 310 297 297 293 290 295 290 293 291 283 279 271 278 287 297 299 299 301 303 307 310 305 307 313 304 294 240 245 249
189 182 174 218 199 156 179 20 314 309 319 318 318 317 321 313 305 302 291 289 295 289 292 291 282 271 260 267 275 283 292 293 295 298 300 305 304 299 299 312 305 271 239 245
Height
1496 1503 1508 1504 1503 1502 1503 1510 1514 1508 1503 1506 1507 1504 1507 1509 1514 1517 1519 1524 1528 1531 1536 1540 1545 1550 1554 1557 1560 1563 1567 1570 1573 1575 1578 1581 1584 1586 1588 1590 1592 1594 1596 1598
1500 1506 1498 1497 1500 1502 1504 1508 1513 1505 1502 1505 1503 1506 1507 1507 1509 1512 1514 1520 1526 1531 1535 1538 1543 1548 1552 1554 1558 1562 1566 1569 1571 1574 1577 1581 1584 1586 1588 1590 1592 1594 1596 1597
1499 1494 1493 1496 1500 1504 1506 1512 1510 1511 1504 1504 1506 1512 1511 1509 1509 1511 1515 1519 1524 1527 1530 1535 1539 1544 1549 1553 1556 1559 1563 1567 1570 1573 1575 1579 1582 1584 1587 1589 1591 1593 1595 1597
1491 1488 1491 1495 1498 1500 1510 1502 1502 1506 1513 1525 1508 1536 1516 1511 1510 1509 1511 1514 1519 1523 1528 1532 1536 1540 1544 1549 1554 1558 1561 1565 1569 1572 1574 1576 1579 1582 1585 1589 1591 1593 1594 1596
1491 1489 1491 1495 1495 1495 1503 1497 1502 1504 1514 1517 1516 1530 1519 1512 1514 1506 1505 1510 1513 1518 1523 1526 1531 1536 1540 1545 1551 1555 1559 1562 1566 1570 1573 1575 1578 1581 1585 1588 1590 1592 1594 1595
1484 1483 1486 1487 1486 1489 1491 1502 1512 1518 1525 1541 1519 1524 1523 1518 1506 1496 1502 1504 1508 1512 1517 1523 1527 1532 1536 1541 1546 1550 1555 1557 1562 1566 1570 1572 1575 1578 1582 1586 1588 1591 1593 1595
1490 1491 1488 1487 1489 1490 1496 1511 1540 1539 1543 1542 1526 1525 1519 1507 1499 1495 1494 1498 1503 1507 1512 1517 1520 1524 1529 1534 1539 1544 1549 1553 1557 1562 1566 1569 1572 1575 1579 1583 1586 1588 1591 1593
1508 1513 1496 1489 1491 1494 1498 1505 1531 1537 1551 1534 1525 1525 1520 1505 1499 1490 1492 1496 1500 1504 1509 1513 1517 1519 1522 1528 1534 1539 1543 1548 1553 1558 1562 1565 1569 1572 1574 1579 1583 1586 1589 1592
1510 1510 1497 1494 1494 1494 1499 1514 1511 1532 1539 1537 1533 1513 1507 1505 1500 1498 1497 1498 1499 1501 1502 1505 1512 1515 1518 1523 1527 1532 1537 1544 1548 1553 1557 1561 1565 1568 1570 1574 1578 1582 1586 1589
1504 1515 1504 1501 1496 1497 1500 1507 1519 1527 1540 1535 1536 1533 1534 1518 1512 1506 1502 1502 1500 1499 1499 1499 1501 1503 1509 1514 1521 1527 1532 1537 1542 1548 1553 1557 1560 1564 1568 1571 1574 1577 1582 1586
1504 1510 1511 1508 1522 1522 1514 1521 1525 1529 1537 1544 1548 1546 1527 1526 1521 1515 1509 1504 1500 1496 1494 1493 1494 1496 1500 1506 1512 1518 1525 1531 1537 1542 1547 1552 1556 1560 1564 1567 1570 1573 1577 1581
1510 1520 1534 1530 1523 1520 1519 1525 1533 1533 1535 1545 1541 1543 1523 1522 1520 1519 1513 1509 1501 1495 1489 1484 1487 1493 1498 1501 1505 1509 1517 1524 1530 1535 1541 1546 1551 1555 1559 1562 1565 1569 1572 1577
1510 1528 1540 1536 1530 1525 1530 1528 1533 1539 1543 1546 1541 1542 1523 1522 1519 1518 1517 1511 1507 1499 1490 1485 1484 1489 1494 1496 1500 1505 1510 1515 1524 1529 1534 1540 1545 1549 1553 1556 1560 1564 1568 1572
1511 1530 1527 1536 1533 1536 1538 1532 1530 1536 1543 1544 1544 1533 1527 1523 1524 1521 1517 1514 1510 1505 1499 1495 1491 1491 1493 1495 1497 1501 1505 1511 1517 1522 1528 1533 1538 1543 1548 1552 1554 1558 1562 1566
1517 1532 1530 1532 1532 1532 1534 1534 1531 1531 1531 1533 1530 1532 1530 1530 1527 1525 1523 1516 1511 1507 1504 1501 1498 1496 1496 1495 1496 1499 1502 1506 1511 1515 1521 1525 1531 1536 1541 1545 1549 1553 1556 1559
1524 1535 1531 1536 1535 1535 1535 1534 1534 1532 1529 1530 1526 1531 1533 1530 1529 1524 1524 1520 1517 1514 1510 1508 1504 1500 1497 1497 1498 1499 1501 1504 1507 1512 1515 1520 1523 1529 1532 1537 1541 1545 1549 1552
1530 1537 1543 1541 1541 1538 1542 1535 1531 1530 1531 1531 1532 1535 1535 1529 1528 1528 1525 1524 1522 1518 1515 1512 1508 1504 1501 1496 1495 1497 1499 1502 1504 1507 1510 1513 1516 1520 1525 1529 1533 1537 1540 1545
1533 1538 1545 1548 1545 1548 1538 1535 1534 1531 1533 1534 1533 1535 1535 1533 1527 1527 1528 1525 1524 1520 1517 1515 1513 1509 1505 1501 1496 1494 1496 1498 1499 1503 1505 1508 1512 1515 1518 1521 1524 1528 1532 1535
1530 1538 1550 1551 1552 1543 1539 1543 1542 1543 1537 1539 1537 1536 1536 1532 1525 1524 1524 1524 1525 1523 1520 1518 1516 1513 1508 1506 1503 1498 1495 1495 1495 1497 1499 1502 1505 1508 1511 1512 1516 1519 1523 1526
1532 1534 1543 1550 1543 1542 1545 1543 1541 1542 1540 1540 1540 1538 1536 1533 1531 1524 1522 1522 1521 1521 1519 1516 1514 1512 1511 1507 1503 1500 1498 1495 1492 1495 1496 1499 1500 1501 1503 1506 1509 1512 1515 1518
1546 1545 1549 1549 1554 1544 1540 1538 1537 1543 1541 1538 1538 1537 1536 1535 1534 1525 1520 1517 1519 1517 1516 1515 1512 1509 1508 1506 1503 1500 1498 1495 1494 1495 1495 1496 1497 1496 1497 1499 1501 1503 1505 1509
1544 1551 1550 1545 1540 1545 1535 1537 1540 1538 1535 1534 1532 1532 1530 1528 1526 1524 1517 1514 1511 1510 1508 1510 1508 1505 1504 1502 1499 1498 1493 1491 1492 1493 1496 1494 1491 1490 1492 1492 1492 1495 1500 1500
1546 1541 1547 1546 1543 1534 1535 1537 1537 1537 1536 1535 1532 1529 1527 1524 1519 1518 1514 1507 1504 1503 1501 1503 1502 1500 1499 1499 1497 1495 1490 1488 1488 1490 1489 1489 1490 1489 1488 1485 1484 1488 1492 1492
1534 1534 1536 1540 1530 1532 1533 1534 1534 1534 1533 1531 1530 1526 1524 1519 1515 1510 1508 1503 1497 1496 1495 1493 1493 1492 1492 1494 1493 1489 1485 1483 1483 1483 1484 1483 1486 1485 1482 1477 1478 1480 1482 1484
1529 1531 1533 1533 1525 1526 1526 1527 1527 1528 1528 1526 1524 1522 1519 1515 1509 1505 1501 1499 1494 1487 1487 1485 1483 1483 1483 1485 1485 1482 1479 1477 1478 1476 1477 1478 1479 1479 1476 1475 1473 1471 1471 1473
1518 1519 1526 1522 1513 1515 1518 1520 1522 1522 1521 1521 1518 1515 1514 1509 1504 1499 1495 1493 1488 1480 1477 1475 1475 1474 1475 1477 1477 1476 1473 1474 1469 1465 1467 1472 1471 1472 1471 1463 1462 1462 1461 1463